Montpellier, France

2:49 AM CEST on May 23, 2017 (GMT +0200)
Montpellier / Mediterranee

Weather History for LFMT - April, 2014

Change the Weather History Date:

Friday, April 4, 2014

  Actual Average Record
Temperature  
Mean Temperature 62 °F -  
Max Temperature 72 °F 64 °F 77 °F (1999)
Min Temperature 53 °F 48 °F 42 °F (2003)
Degree Days  
Heating Degree Days 2    
Growing Degree Days 12 (Base 50)    
Moisture  
Dew Point 47 °F    
Average Humidity 57    
Maximum Humidity 82    
Minimum Humidity 28    
Precipitation  
Precipitation 0.00 in - - ()
Sea Level Pressure  
Sea Level Pressure 29.69 in    
Wind  
Wind Speed 11 mph ()    
Max Wind Speed 29 mph    
Max Gust Speed 37 mph    
Visibility 10.4 miles    
Events Rain    
Averages and records for this station are not official NWS values.
T = Trace of Precipitation, MM = Missing Value Source: Averaged Metar Reports

Daily Weather History Graph

Daily Weather History Graph

Search for Another Location

Airport or City:

Trip Planner

Search our weather history database for the weather conditions in past years. The results will help you decide how hot, cold, wet, or windy it might be!

Date:

Astronomy

Apr. 04, 2014 Rise Set
Actual Time 7:20 AM CEST 8:14 PM CEST
Civil Twilight 6:51 AM CEST 8:43 PM CEST
Nautical Twilight 6:17 AM CEST 9:18 PM CEST
Astronomical Twilight 5:41 AM CEST 9:54 PM CEST
Moon 10:18 AM CEST (4/4) 12:24 AM CEST (4/4)
Length of Visible Light 13h 51m
Length of Day
12h 53m
Waxing Crescent, 23% of the Moon is Illuminated
Apr 4
Waxing Crescent
Apr 7
First Quarter
Apr 15
Full
Apr 22
Last Quarter
Apr 29
New

Hourly Weather History & Observations

Time (CEST) Temp. Dew Point Humidity Pressure Visibility Wind Dir Wind Speed Gust Speed Precip Events Conditions
12:00 AM 53 °F 48 °F 76% 29.62 in 12 mi North 6.9 mph - -   Scattered Clouds
12:00 AM 53.6 °F 48.2 °F 82% 29.59 in - North 6.9 mph - N/A   Clear
12:30 AM 55.4 °F 48.2 °F 77% 29.59 in - NNW 6.9 mph - N/A   Clear
1:00 AM 55 °F 47 °F 67% 29.62 in 12 mi North 6.9 mph - -   Mostly Cloudy
1:00 AM 55.4 °F 48.2 °F 77% 29.59 in - North 6.9 mph - N/A   Clear
1:30 AM 55.4 °F 46.4 °F 72% 29.59 in 6.2 mi North 8.1 mph - N/A   Unknown
2:00 AM 56 °F 47 °F 63% 29.63 in 28 mi North 6.9 mph - -   Clear
2:00 AM 55.4 °F 46.4 °F 72% 29.62 in 6.2 mi North 6.9 mph - N/A   Unknown
2:30 AM 55.4 °F 48.2 °F 77% 29.62 in 6.2 mi NNE 9.2 mph - N/A Rain Light Rain
3:00 AM 54 °F 49 °F 77% 29.64 in 9 mi North 6.9 mph - - Rain Light Rain
3:00 AM 55.4 °F 48.2 °F 77% 29.62 in 6.2 mi North 6.9 mph - N/A Rain Light Rain
3:30 AM 55.4 °F 48.2 °F 77% 29.62 in 6.2 mi NNW 6.9 mph - N/A Rain Light Rain
4:00 AM 55 °F 47 °F 68% 29.64 in 31 mi NW 3.5 mph - -   Clear
4:00 AM 55.4 °F 48.2 °F 77% 29.62 in 6.2 mi NW 3.5 mph - N/A   Unknown
4:30 AM 57.2 °F 46.4 °F 67% 29.62 in 6.2 mi WNW 8.1 mph - N/A   Unknown
6:00 AM 56 °F 47 °F 64% 29.63 in 9 mi WNW 10.4 mph - -   Mostly Cloudy
6:00 AM 55.4 °F 48.2 °F 77% 29.62 in - WNW 10.4 mph - N/A   Clear
6:30 AM 57.2 °F 46.4 °F 67% 29.62 in - NW 13.8 mph - N/A   Clear
7:00 AM 57 °F 46 °F 56% 29.65 in 12 mi NW 9.2 mph - -   Mostly Cloudy
7:00 AM 57.2 °F 46.4 °F 67% 29.62 in - NW 9.2 mph - N/A   Clear
7:30 AM 57.2 °F 46.4 °F 67% 29.65 in - NNW 5.8 mph - N/A   Clear
8:00 AM 56 °F 47 °F 63% 29.68 in 34 mi ENE 3.5 mph - -   Clear
8:00 AM 57.2 °F 48.2 °F 72% 29.65 in - Variable 2.3 mph - N/A   Clear
8:30 AM 57.2 °F 46.4 °F 67% 29.65 in - WNW 5.8 mph - N/A   Clear
9:00 AM 57 °F 49 °F 65% 29.69 in 12 mi ESE 3.5 mph - -   Mostly Cloudy
9:00 AM 57.2 °F 50.0 °F 77% 29.68 in - East 3.5 mph - N/A   Clear
9:30 AM 57.2 °F 50.0 °F 77% 29.68 in - WSW 3.5 mph - N/A   Clear
10:00 AM 61 °F 48 °F 51% 29.69 in 25 mi WNW 10.4 mph - -   Mostly Cloudy
10:00 AM 60.8 °F 48.2 °F 63% 29.68 in - WNW 10.4 mph - N/A   Clear
10:30 AM 62.6 °F 48.2 °F 59% 29.68 in - WNW 13.8 mph - N/A   Clear
11:00 AM 64 °F 49 °F 47% 29.70 in 25 mi WNW 13.8 mph - -   Partly Cloudy
11:12 AM 64.4 °F 48.2 °F 56% 29.68 in - WNW 15.0 mph - N/A   Clear
12:00 PM 65 °F 47 °F 42% 29.71 in 31 mi NW 15.0 mph - -   Mostly Cloudy
12:00 PM 64.4 °F 48.2 °F 56% 29.68 in - NW 15.0 mph - N/A   Clear
12:30 PM 66.2 °F 48.2 °F 52% 29.68 in - NW 15.0 mph - N/A   Clear
1:00 PM 70 °F 49 °F 36% 29.70 in 31 mi WNW 17.3 mph - -   Mostly Cloudy
1:00 PM 69.8 °F 48.2 °F 46% 29.68 in - WNW 17.3 mph - N/A   Clear
1:30 PM 71.6 °F 46.4 °F 41% 29.68 in - West 19.6 mph - N/A   Clear
2:00 PM 73 °F 47 °F 28% 29.69 in 31 mi WNW 23.0 mph - -   Mostly Cloudy
2:00 PM 71.6 °F 46.4 °F 41% 29.68 in - WNW 21.9 mph - N/A   Clear
2:30 PM 71.6 °F 48.2 °F 43% 29.68 in - WNW 26.5 mph - N/A   Clear
3:00 PM 69 °F 49 °F 39% 29.69 in 31 mi West 27.6 mph - -   Mostly Cloudy
3:00 PM 68.0 °F 50.0 °F 52% 29.68 in - West 27.6 mph - N/A   Clear
3:30 PM 66.2 °F 50.0 °F 56% 29.68 in - West 25.3 mph 36.8 mph N/A   Clear
4:00 PM 68 °F 49 °F 40% 29.69 in 31 mi West 27.6 mph - -   Mostly Cloudy
4:00 PM 68.0 °F 48.2 °F 49% 29.68 in - West 27.6 mph - N/A   Clear
4:30 PM 68.0 °F 48.2 °F 49% 29.68 in - WNW 26.5 mph - N/A   Clear
5:00 PM 68 °F 48 °F 38% 29.70 in 31 mi West 28.8 mph - -   Partly Cloudy
5:00 PM 68.0 °F 48.2 °F 49% 29.68 in - West 27.6 mph - N/A   Clear
5:30 PM 68.0 °F 46.4 °F 46% 29.68 in - WNW 27.6 mph - N/A   Clear
6:00 PM 68 °F 46 °F 34% 29.72 in 31 mi WNW 27.6 mph - -   Partly Cloudy
6:00 PM 68.0 °F 46.4 °F 46% 29.71 in - WNW 27.6 mph - N/A   Clear
6:34 PM 64.4 °F 46.4 °F 52% 29.71 in - WNW 25.3 mph - N/A   Clear
7:00 PM 65 °F 46 °F 39% 29.75 in 31 mi WNW 24.2 mph - -   Scattered Clouds
7:00 PM 64.4 °F 46.4 °F 52% 29.74 in - WNW 25.3 mph - N/A   Clear
7:30 PM 62.6 °F 44.6 °F 52% 29.74 in - WNW 26.5 mph - N/A   Clear
8:00 PM 62 °F 45 °F 43% 29.77 in 34 mi WNW 23.0 mph - -   Clear
8:00 PM 60.8 °F 46.4 °F 59% 29.77 in - WNW 20.7 mph - N/A   Clear
9:00 PM 61 °F 45 °F 44% 29.80 in 19 mi WNW 18.4 mph - -   Scattered Clouds
9:00 PM 60.8 °F 44.6 °F 55% 29.80 in - WNW 17.3 mph - N/A   Clear
9:30 PM 60.8 °F 44.6 °F 55% 29.80 in - NW 15.0 mph - N/A   Clear
10:00 PM 60 °F 44 °F 43% 29.83 in 19 mi WNW 15.0 mph - -   Mostly Cloudy
10:00 PM 60.8 °F 42.8 °F 52% 29.80 in - WNW 15.0 mph - N/A   Clear
10:30 PM 60.8 °F 42.8 °F 52% 29.83 in - WNW 17.3 mph - N/A   Clear
11:00 PM 60 °F 43 °F 42% 29.83 in 19 mi WNW 16.1 mph - -   Mostly Cloudy
11:00 PM 60.8 °F 42.8 °F 52% 29.83 in - WNW 16.1 mph - N/A   Clear
11:30 PM 60.8 °F 42.8 °F 52% 29.83 in - NW 17.3 mph - N/A   Clear